Retour au catalogue

EGS

AJISAI

ActifScienceLEO
NORAD 16908·PAYLOAD·🇯🇵 Japan

Lancé Aug 12, 1986 depuis Tanegashima Space Center

Loading…

Prochains Passages (prochaines 24 heures)

TLE

FraisSource: CelesTrak SupGP

Époque: Sep 14, 2026, 00:00 UTC

1 16908C 86061A   26257.00000000  .00000007  00000+0  50310-4 0  2573
2 16908  50.0075 234.2993 0011331  46.3471 225.4635 12.44517261    10

Suivez EGS en temps réel avec AllMySat

Download on the App Store